Regional Weather Roundup
Issued by NWS Sioux Falls, SD

Home | Current Version | Previous Version | Text Only | Print | Product List | Glossary Off
Versions: 1 2 3 4 5 6 7 8 9 10 11 12 13 14 15 16 17 18 19 20 21 22 23 24 25 26 27 28 29 30 31 32 33 34 35 36 37 38 39 40 41 42 43 44 45 46 47 48 49 50

000
ASUS43 KFSD 041202
RWRFSD

WEATHER ROUNDUP FOR SE SOUTH DAKOTA/SW MINNESOTA/NW IOWA
NATIONAL WEATHER SERVICE SIOUX FALLS SD
700 AM CDT SAT JUL 04 2015

NOTE: "FAIR" INDICATES FEW OR NO CLOUDS BELOW 12,000 FEET WITH NO
SIGNIFICANT WEATHER AND OR OBSTRUCTIONS TO VISIBILITY.


SDZ038>040-050-052>070-041300-
SOUTHEAST SOUTH DAKOTA

CITY           SKY/WX    TMP DP  RH WIND       PRES   REMARKS
BROOKINGS      SUNNY     63  59  88 SE5       29.97S
CHAMBERLAIN    PTCLDY    64  63  95 S5        29.92S
6HR MIN TEMP:  62; 6HR MAX TEMP:  65;

HURON          CLEAR     63  62  97 SE8       29.91S FOG
6HR MIN TEMP:  62; 6HR MAX TEMP:  68;

MADISON        FAIR      61  61 100 S7        29.97R
MITCHELL       CLEAR     63  62  97 S7        29.94R FOG
6HR MIN TEMP:  63; 6HR MAX TEMP:  69;

SIOUX FALLS    MOSUNNY   62  60  93 CALM      29.96S FOG
6HR MIN TEMP:  60; 6HR MAX TEMP:  69;

WINNER         FAIR      68  60  75 S14G23    29.91S
YANKTON          N/A     59  57  94 SE5       29.96S VSB 3/4
$$

MNZ071-072-080-081-089-090-097-098-041300-
SOUTHWEST MINNESOTA

CITY           SKY/WX    TMP DP  RH WIND       PRES   REMARKS
FAIRMONT       SUNNY     63  54  72 W5        29.97S
JACKSON        SUNNY     63  55  77 SW5       29.98S HAZE
LUVERNE          N/A     59  55  88 CALM      29.98S
MARSHALL       SUNNY     66  61  82 W5          N/A
6HR MIN TEMP:  64; 6HR MAX TEMP:  68;

MONTEVIDEO     SUNNY     66  63  88 CALM      29.95R FOG
PIPESTONE      SUNNY     63  59  88 CALM      29.97S FOG
REDWOOD FALLS  SUNNY     65  62  90 SW5       29.95R FOG
TRACY          MOSUNNY   66  63  88 SW6       29.96S FOG
WINDOM         SUNNY     63  59  88 CALM      29.98R FOG
WORTHINGTON    SUNNY     63  55  77 SW8       29.98S
$$

IAZ001>003-012>014-020>022-031-032-NEZ013-014-SDZ071-041300-
NORTHWEST IOWA

CITY           SKY/WX    TMP DP  RH WIND       PRES   REMARKS
DENISON        SUNNY     54  54 100 MISG      29.99S
ESTHERVILLE    SUNNY     60  56  86 SW5       29.98S FOG
SIOUX CITY     SUNNY     58  55  90 SE6       29.99R
6HR MIN TEMP:  57; 6HR MAX TEMP:  62;

SPENCER        SUNNY     57  53  86 CALM      29.99S
6HR MIN TEMP:  55; 6HR MAX TEMP:  61;

$$

ABBREVIATIONS USED IN REMARKS
   TC - TEMPERATURE IN CELSIUS
  WCI - WIND CHILL INDEX
   HX - HEAT INDEX
  VSB - VISIBILITY




USA.gov is the U.S. government's official web portal to all federal, state and local government web resources and services.